Time,TemperatureF,DewpointF,PressureIn,WindDirection,WindDirectionDegrees,WindSpeedMPH,WindSpeedGustMPH,Humidity,HourlyPrecipIn,Conditions,Clouds,dailyrainin,SoftwareType,DateUTC
2013-09-27 00:11:00,75.8,48.0,29.57,WSW,249,4.0,6.0,37,0.00,,,0.00,weatherlink.com 1.10,2013-09-27 06:11:00,
2013-09-27 00:26:00,75.9,47.0,29.57,WSW,249,2.0,9.0,36,0.00,,,0.00,weatherlink.com 1.10,2013-09-27 06:26:00,
2013-09-27 00:41:00,75.7,48.0,29.57,NW,307,2.0,11.0,37,0.00,,,0.00,weatherlink.com 1.10,2013-09-27 06:41:00,
2013-09-27 00:56:00,75.4,47.0,29.57,WNW,285,3.0,8.0,37,0.00,,,0.00,weatherlink.com 1.10,2013-09-27 06:56:00,
2013-09-27 01:11:00,74.9,48.0,29.57,SE,139,2.0,4.0,38,0.00,,,0.00,weatherlink.com 1.10,2013-09-27 07:11:00,
2013-09-27 01:26:00,74.5,48.0,29.57,SE,146,0.0,3.0,39,0.00,,,0.00,weatherlink.com 1.10,2013-09-27 07:26:00,
2013-09-27 01:41:00,74.3,48.0,29.57,SSW,198,0.0,2.0,40,0.00,,,0.00,weatherlink.com 1.10,2013-09-27 07:41:00,
2013-09-27 01:56:00,74.4,48.0,29.56,NW,310,1.0,4.0,40,0.00,,,0.00,weatherlink.com 1.10,2013-09-27 07:56:00,
2013-09-27 02:11:00,74.0,49.0,29.56,NNW,338,2.0,2.0,41,0.00,,,0.00,weatherlink.com 1.10,2013-09-27 08:11:00,
2013-09-27 02:27:00,73.5,49.0,29.56,North,356,0.0,2.0,42,0.00,,,0.00,weatherlink.com 1.10,2013-09-27 08:27:00,
2013-09-27 02:41:00,73.8,50.0,29.56,West,260,1.0,6.0,43,0.00,,,0.00,weatherlink.com 1.10,2013-09-27 08:41:00,
2013-09-27 02:56:00,73.7,50.0,29.56,NW,315,1.0,8.0,44,0.00,,,0.00,weatherlink.com 1.10,2013-09-27 08:56:00,
2013-09-27 03:11:00,73.5,51.0,29.55,NW,312,2.0,9.0,45,0.00,,,0.00,weatherlink.com 1.10,2013-09-27 09:11:00,
2013-09-27 03:26:00,73.1,51.0,29.55,West,259,1.0,7.0,46,0.00,,,0.00,weatherlink.com 1.10,2013-09-27 09:26:00,
2013-09-27 03:41:00,73.0,51.0,29.55,WNW,290,2.0,8.0,47,0.00,,,0.00,weatherlink.com 1.10,2013-09-27 09:41:00,
2013-09-27 03:57:00,72.6,52.0,29.55,NW,307,2.0,4.0,49,0.00,,,0.00,weatherlink.com 1.10,2013-09-27 09:57:00,
2013-09-27 04:12:00,72.3,52.0,29.55,WNW,285,2.0,4.0,49,0.00,,,0.00,weatherlink.com 1.10,2013-09-27 10:12:00,
2013-09-27 04:27:00,71.5,52.0,29.55,West,266,0.0,3.0,51,0.00,,,0.00,weatherlink.com 1.10,2013-09-27 10:27:00,
2013-09-27 04:42:00,71.1,52.0,29.55,West,270,0.0,4.0,52,0.00,,,0.00,weatherlink.com 1.10,2013-09-27 10:42:00,
2013-09-27 04:57:00,70.7,53.0,29.56,WNW,303,0.0,4.0,53,0.00,,,0.00,weatherlink.com 1.10,2013-09-27 10:57:00,
2013-09-27 05:12:00,70.5,53.0,29.56,NW,311,2.0,5.0,54,0.00,,,0.00,weatherlink.com 1.10,2013-09-27 11:12:00,
2013-09-27 05:27:00,70.5,53.0,29.56,WSW,257,0.0,4.0,55,0.00,,,0.00,weatherlink.com 1.10,2013-09-27 11:27:00,
2013-09-27 05:42:00,70.2,54.0,29.56,WNW,284,1.0,7.0,56,0.00,,,0.00,weatherlink.com 1.10,2013-09-27 11:42:00,
2013-09-27 05:57:00,69.9,54.0,29.57,NW,307,1.0,5.0,57,0.00,,,0.00,weatherlink.com 1.10,2013-09-27 11:57:00,
2013-09-27 06:12:00,69.6,54.0,29.57,NW,308,0.0,2.0,58,0.00,,,0.00,weatherlink.com 1.10,2013-09-27 12:12:00,
2013-09-27 06:27:00,69.4,54.0,29.57,NW,320,1.0,4.0,58,0.00,,,0.00,weatherlink.com 1.10,2013-09-27 12:27:00,
2013-09-27 06:42:00,69.0,54.0,29.57,NW,314,1.0,2.0,59,0.00,,,0.00,weatherlink.com 1.10,2013-09-27 12:42:00,
2013-09-27 06:57:00,69.0,54.0,29.57,WNW,301,0.0,2.0,59,0.00,,,0.00,weatherlink.com 1.10,2013-09-27 12:57:00,
2013-09-27 07:12:00,69.0,54.0,29.57,WNW,295,0.0,2.0,59,0.00,,,0.00,weatherlink.com 1.10,2013-09-27 13:12:00,
2013-09-27 07:27:00,68.6,54.0,29.58,NNW,335,1.0,2.0,60,0.00,,,0.00,weatherlink.com 1.10,2013-09-27 13:27:00,
2013-09-27 07:42:00,68.8,54.0,29.58,North,351,0.0,2.0,60,0.00,,,0.00,weatherlink.com 1.10,2013-09-27 13:42:00,
2013-09-27 07:57:00,68.6,54.0,29.58,West,264,0.0,1.0,61,0.00,,,0.00,weatherlink.com 1.10,2013-09-27 13:57:00,
2013-09-27 08:12:00,69.6,54.0,29.59,SW,226,1.0,2.0,59,0.00,,,0.00,weatherlink.com 1.10,2013-09-27 14:12:00,
2013-09-27 08:27:00,69.4,55.0,29.59,WSW,238,0.0,0.0,60,0.00,,,0.00,weatherlink.com 1.10,2013-09-27 14:27:00,
2013-09-27 08:43:00,69.3,55.0,29.59,WSW,248,0.0,1.0,61,0.00,,,0.00,weatherlink.com 1.10,2013-09-27 14:43:00,
2013-09-27 08:57:00,70.3,55.0,29.60,WNW,294,0.0,3.0,59,0.00,,,0.00,weatherlink.com 1.10,2013-09-27 14:57:00,
2013-09-27 09:12:00,71.6,55.0,29.60,WSW,248,2.0,6.0,57,0.00,,,0.00,weatherlink.com 1.10,2013-09-27 15:12:00,
2013-09-27 09:27:00,73.0,56.0,29.60,SSE,152,2.0,6.0,55,0.00,,,0.00,weatherlink.com 1.10,2013-09-27 15:27:00,
2013-09-27 09:42:00,72.9,56.0,29.60,SSW,210,2.0,8.0,55,0.00,,,0.00,weatherlink.com 1.10,2013-09-27 15:42:00,
2013-09-27 09:57:00,74.1,56.0,29.59,SSW,203,3.0,9.0,53,0.00,,,0.00,weatherlink.com 1.10,2013-09-27 15:57:00,
2013-09-27 10:13:00,75.5,55.0,29.59,SSE,160,3.0,8.0,50,0.00,,,0.00,weatherlink.com 1.10,2013-09-27 16:13:00,
2013-09-27 10:28:00,76.3,56.0,29.59,South,190,7.0,8.0,50,0.00,,,0.00,weatherlink.com 1.10,2013-09-27 16:28:00,
2013-09-27 10:42:00,76.4,56.0,29.60,SSE,150,3.0,7.0,50,0.00,,,0.00,weatherlink.com 1.10,2013-09-27 16:42:00,
2013-09-27 10:57:00,77.3,55.0,29.59,WSW,238,8.0,10.0,47,0.00,,,0.00,weatherlink.com 1.10,2013-09-27 16:57:00,
2013-09-27 11:12:00,77.6,55.0,29.59,SW,226,4.0,9.0,46,0.00,,,0.00,weatherlink.com 1.10,2013-09-27 17:12:00,
2013-09-27 11:27:00,78.1,56.0,29.59,SW,214,5.0,13.0,47,0.00,,,0.00,weatherlink.com 1.10,2013-09-27 17:27:00,
2013-09-27 11:42:00,77.7,55.0,29.58,SW,217,4.0,10.0,46,0.00,,,0.00,weatherlink.com 1.10,2013-09-27 17:42:00,
2013-09-27 11:57:00,78.0,56.0,29.58,West,269,5.0,12.0,46,0.00,,,0.00,weatherlink.com 1.10,2013-09-27 17:57:00,
2013-09-27 12:12:00,78.2,56.0,29.58,West,269,1.0,10.0,47,0.00,,,0.00,weatherlink.com 1.10,2013-09-27 18:12:00,
2013-09-27 12:27:00,79.6,55.0,29.57,SSW,210,5.0,9.0,43,0.00,,,0.00,weatherlink.com 1.10,2013-09-27 18:27:00,
2013-09-27 12:42:00,79.6,55.0,29.57,WSW,240,5.0,14.0,43,0.00,,,0.00,weatherlink.com 1.10,2013-09-27 18:42:00,
2013-09-27 12:57:00,80.1,55.0,29.56,SW,222,5.0,15.0,42,0.00,,,0.00,weatherlink.com 1.10,2013-09-27 18:57:00,
2013-09-27 13:12:00,81.0,56.0,29.55,WNW,287,2.0,11.0,42,0.00,,,0.00,weatherlink.com 1.10,2013-09-27 19:12:00,
2013-09-27 13:27:00,81.7,55.0,29.55,WSW,243,10.0,11.0,40,0.00,,,0.00,weatherlink.com 1.10,2013-09-27 19:27:00,
2013-09-27 13:42:00,80.3,55.0,29.54,SSW,195,6.0,13.0,42,0.00,,,0.00,weatherlink.com 1.10,2013-09-27 19:42:00,
2013-09-27 13:57:00,80.0,55.0,29.54,WNW,285,4.0,16.0,42,0.00,,,0.00,weatherlink.com 1.10,2013-09-27 19:57:00,
2013-09-27 14:13:00,80.8,54.0,29.53,WSW,246,7.0,15.0,40,0.00,,,0.00,weatherlink.com 1.10,2013-09-27 20:13:00,
2013-09-27 14:28:00,81.2,54.0,29.52,WSW,249,5.0,13.0,39,0.00,,,0.00,weatherlink.com 1.10,2013-09-27 20:28:00,
2013-09-27 14:44:00,81.1,55.0,29.52,SSW,212,8.0,13.0,41,0.00,,,0.00,weatherlink.com 1.10,2013-09-27 20:44:00,
2013-09-27 14:58:00,82.1,55.0,29.51,SW,232,10.0,11.0,40,0.00,,,0.00,weatherlink.com 1.10,2013-09-27 20:58:00,
2013-09-27 15:13:00,82.2,53.0,29.51,WSW,258,10.0,14.0,36,0.00,,,0.00,weatherlink.com 1.10,2013-09-27 21:13:00,
2013-09-27 15:28:00,80.8,54.0,29.51,West,259,8.0,9.0,39,0.00,,,0.00,weatherlink.com 1.10,2013-09-27 21:28:00,
2013-09-27 15:43:00,81.9,52.0,29.51,SW,226,5.0,15.0,36,0.00,,,0.00,weatherlink.com 1.10,2013-09-27 21:43:00,
2013-09-27 15:58:00,83.0,52.0,29.50,West,260,5.0,14.0,34,0.00,,,0.00,weatherlink.com 1.10,2013-09-27 21:58:00,
2013-09-27 16:13:00,83.0,51.0,29.51,WSW,258,7.0,12.0,33,0.00,,,0.00,weatherlink.com 1.10,2013-09-27 22:13:00,
2013-09-27 16:28:00,82.2,50.0,29.51,West,279,2.0,11.0,32,0.00,,,0.00,weatherlink.com 1.10,2013-09-27 22:28:00,
2013-09-27 16:43:00,83.3,48.0,29.50,SW,219,7.0,12.0,29,0.00,,,0.00,weatherlink.com 1.10,2013-09-27 22:43:00,
2013-09-27 16:58:00,83.3,46.0,29.51,WSW,253,16.0,16.0,27,0.00,,,0.00,weatherlink.com 1.10,2013-09-27 22:58:00,
2013-09-27 17:13:00,83.1,45.0,29.52,WSW,252,6.0,11.0,26,0.00,,,0.00,weatherlink.com 1.10,2013-09-27 23:13:00,
2013-09-27 17:28:00,82.2,44.0,29.52,WNW,297,13.0,14.0,26,0.00,,,0.00,weatherlink.com 1.10,2013-09-27 23:28:00,
2013-09-27 17:43:00,81.4,42.0,29.53,WNW,293,7.0,17.0,25,0.00,,,0.00,weatherlink.com 1.10,2013-09-27 23:43:00,
2013-09-27 17:58:00,81.3,41.0,29.53,WSW,255,9.0,13.0,24,0.00,,,0.00,weatherlink.com 1.10,2013-09-27 23:58:00,
2013-09-27 18:13:00,80.7,41.0,29.54,WNW,300,2.0,14.0,24,0.00,,,0.00,weatherlink.com 1.10,2013-09-28 00:13:00,
2013-09-27 18:28:00,80.4,40.0,29.54,West,270,4.0,12.0,24,0.00,,,0.00,weatherlink.com 1.10,2013-09-28 00:28:00,
2013-09-27 18:43:00,79.7,40.0,29.55,WNW,297,3.0,15.0,24,0.00,,,0.00,weatherlink.com 1.10,2013-09-28 00:43:00,
2013-09-27 18:58:00,77.6,44.0,29.55,NW,319,5.0,9.0,30,0.00,,,0.00,weatherlink.com 1.10,2013-09-28 00:58:00,
2013-09-27 19:13:00,76.2,45.0,29.56,NW,323,5.0,15.0,33,0.00,,,0.00,weatherlink.com 1.10,2013-09-28 01:13:00,
2013-09-27 19:28:00,75.3,45.0,29.57,WNW,301,5.0,13.0,34,0.00,,,0.00,weatherlink.com 1.10,2013-09-28 01:28:00,
2013-09-27 19:43:00,74.4,45.0,29.58,NW,323,3.0,9.0,35,0.00,,,0.00,weatherlink.com 1.10,2013-09-28 01:43:00,
2013-09-27 19:58:00,73.5,46.0,29.58,NNW,334,8.0,10.0,37,0.00,,,0.00,weatherlink.com 1.10,2013-09-28 01:58:00,
2013-09-27 20:13:00,72.7,45.0,29.59,WNW,301,11.0,12.0,37,0.00,,,0.00,weatherlink.com 1.10,2013-09-28 02:13:00,
2013-09-27 20:28:00,72.0,45.0,29.60,NNE,20,3.0,14.0,38,0.00,,,0.00,weatherlink.com 1.10,2013-09-28 02:28:00,
2013-09-27 20:43:00,71.1,45.0,29.61,NNW,332,7.0,15.0,39,0.00,,,0.00,weatherlink.com 1.10,2013-09-28 02:43:00,
2013-09-27 20:58:00,70.2,45.0,29.62,North,356,5.0,14.0,41,0.00,,,0.00,weatherlink.com 1.10,2013-09-28 02:58:00,
2013-09-27 21:13:00,69.7,44.0,29.62,North,1,10.0,15.0,40,0.00,,,0.00,weatherlink.com 1.10,2013-09-28 03:13:00,
2013-09-27 21:28:00,69.3,44.0,29.63,NNW,345,12.0,15.0,41,0.00,,,0.00,weatherlink.com 1.10,2013-09-28 03:28:00,
2013-09-27 21:43:00,68.7,45.0,29.64,North,360,6.0,13.0,42,0.00,,,0.00,weatherlink.com 1.10,2013-09-28 03:43:00,
2013-09-27 21:58:00,68.0,44.0,29.64,NNW,328,5.0,8.0,42,0.00,,,0.00,weatherlink.com 1.10,2013-09-28 03:58:00,
2013-09-27 22:13:00,67.5,44.0,29.65,NNW,328,2.0,9.0,43,0.00,,,0.00,weatherlink.com 1.10,2013-09-28 04:13:00,
2013-09-27 22:28:00,66.7,44.0,29.66,NNW,330,4.0,8.0,44,0.00,,,0.00,weatherlink.com 1.10,2013-09-28 04:28:00,
2013-09-27 22:43:00,66.6,44.0,29.66,NNW,343,5.0,7.0,44,0.00,,,0.00,weatherlink.com 1.10,2013-09-28 04:43:00,
2013-09-27 22:58:00,66.4,44.0,29.67,North,4,3.0,10.0,44,0.00,,,0.00,weatherlink.com 1.10,2013-09-28 04:58:00,
2013-09-27 23:13:00,66.1,43.0,29.68,North,349,2.0,8.0,44,0.00,,,0.00,weatherlink.com 1.10,2013-09-28 05:13:00,
2013-09-27 23:28:00,65.7,44.0,29.68,NNW,343,3.0,5.0,45,0.00,,,0.00,weatherlink.com 1.10,2013-09-28 05:28:00,
2013-09-27 23:43:00,65.5,43.0,29.68,North,354,2.0,6.0,44,0.00,,,0.00,weatherlink.com 1.10,2013-09-28 05:43:00,